This is the latest recevied weather packets stored in our database for station/object WW6Q. If no packets are shown the sender has not sent any weather packets the latest 10 day(s).
| Time | Temp. | Humidity | Pressure | Rain* | Wind** | Luminosity | Snow |
|---|---|---|---|---|---|---|---|
| 1787950885 | 25.56° C | 47% | 1020.1 hPa | 0 mm | - | 77 W/m² | - |
| 1787950580 | 25.56° C | 46% | 1020 hPa | 0 mm | - | 83 W/m² | - |
| 1787950276 | 25.56° C | 44% | 1020.3 hPa | 0 mm | - | 88 W/m² | - |
| 1787949972 | 26.11° C | 47% | 1020.1 hPa | 0 mm | - | 88 W/m² | - |
| 1787949667 | 25.56° C | 48% | 1020 hPa | 0 mm | - | 88 W/m² | - |
| 1787949375 | 26.67° C | 46% | 1020.2 hPa | 0 mm | - | 87 W/m² | - |
| 1787949066 | 26.67° C | 44% | 1020.1 hPa | 0 mm | - | 91 W/m² | - |
| 1787948762 | 27.22° C | 42% | 1020 hPa | 0 mm | - | 319 W/m² | - |
| 1787948457 | 26.67° C | 44% | 1020.2 hPa | 0 mm | - | 614 W/m² | - |
| 1787948153 | 27.22° C | 47% | 1020.2 hPa | 0 mm | - | 627 W/m² | - |
| 1787947852 | 27.22° C | 42% | 1020.1 hPa | 0 mm | - | 643 W/m² | - |
| 1787947551 | 27.22° C | 43% | 1020.3 hPa | 0 mm | - | 653 W/m² | - |
| 1787947246 | 27.78° C | 40% | 1020.3 hPa | 0 mm | - | 664 W/m² | - |
| 1787946945 | 27.22° C | 43% | 1020.2 hPa | 0 mm | - | 681 W/m² | - |
| 1787946643 | 27.22° C | 43% | 1020.2 hPa | 0 mm | - | 702 W/m² | - |
| 1787946338 | 26.67° C | 43% | 1020.2 hPa | 0 mm | - | 711 W/m² | - |
| 1787946033 | 26.67° C | 48% | 1020.1 hPa | 0 mm | - | 707 W/m² | - |
| 1787945732 | 27.22° C | 45% | 1020.4 hPa | 0 mm | - | 706 W/m² | - |
| 1787945428 | 27.22° C | 45% | 1020.4 hPa | 0 mm | - | 714 W/m² | - |
| 1787945124 | 26.67° C | 50% | 1020.4 hPa | 0 mm | - | 713 W/m² | - |
| 1787944821 | 26.67° C | 41% | 1020.2 hPa | 0 mm | - | 719 W/m² | - |
| 1787944516 | 26.67° C | 45% | 1020.4 hPa | 0 mm | - | 726 W/m² | - |
| 1787944212 | 26.67° C | 44% | 1020.5 hPa | 0 mm | - | 723 W/m² | - |
| 1787943911 | 26.67° C | 47% | 1020.3 hPa | 0 mm | - | 732 W/m² | - |
| 1787943607 | 26.67° C | 45% | 1020.3 hPa | 0 mm | - | 742 W/m² | - |
* Rain latest hour (hover to see other rain measurements)
** Current wind speed in m/s (hover to see current wind gust speed)